Weather observations for the past three days for
Franklin / J B Rose
Imperial (Metric)
Date Time (edt) Wind (mph) Vis. (mi.) Weather Sky Cond. Temperature (ºF) Relative Humidity Wind Chill (°F) Heat Index (°F) Pressure Precipitation (in)
Air Dwpt 6 hour altimeter (in) sea level (mb) 1 hr 3 hr 6 hr
Max. Min.
24 07:35 S 3 10.00 Mostly Cloudy BKN005 BKN014 73.8 71.8 94% 30.14 0.0
24 07:15 Calm 10.00 Mostly Cloudy BKN005 BKN021 72.7 71.1 95% 30.14 0.0
24 06:55 SW 5 10.00 Mostly Cloudy SCT007 BKN021 72.5 70.7 94% 30.14 0.0
24 06:35 S 3 10.00 Mostly Cloudy BKN007 72.5 70.7 94% 30.14 0.0
24 06:15 SW 6 10.00 Partly Cloudy SCT007 72.5 70.7 94% 30.13 0.0
24 05:55 S 5 10.00 Mostly Cloudy BKN007 72.5 70.7 94% 30.13 0.0
24 05:35 S 3 10.00 Partly Cloudy SCT007 72.5 70.7 94% 30.13 0.0
24 05:15 S 7 10.00 Partly Cloudy SCT007 72.5 70.7 94% 30.12 0.0
24 04:55 S 5 10.00 Partly Cloudy SCT007 72.9 70.9 94% 30.12 0.0 0.01 0.08
24 04:35 S 8 10.00 Light Rain SCT007 72.9 71.1 94% 30.12 0.0 0.01
24 04:15 S 5 10.00 Drizzle CLR 73 71.6 95% 30.12 0.0
24 03:55 S 5 7.00 Rain SCT120 73.4 71.4 94% 30.13 0.0 0.05
24 03:35 SW 5 10.00 Rain BKN120 72.9 71.2 95% 30.13 0.0 0.02
24 03:15 SW 3 10.00 Light Rain BKN110 73 71.2 94% 30.13 0.0 0.01
24 02:55 S 7 10.00 Light Rain BKN044 BKN060 OVC120 72.9 71.1 94% 30.12 0.0 0.02
24 02:35 SW 6 10.00 Mostly Cloudy BKN045 BKN050 73.2 71.1 93% 30.12 0.0
24 02:15 S 5 10.00 Partly Cloudy SCT050 SCT065 73 71.1 94% 30.11 0.0
24 01:55 S 5 10.00 Partly Cloudy SCT050 SCT120 73.2 70.9 76.3 73.2 92% 30.12 0.0 0.08
24 01:35 S 6 10.00 Partly Cloudy SCT120 73.4 70.7 91% 30.12 0.0
24 01:15 S 7 10.00 Partly Cloudy SCT055 73.4 70.7 91% 30.13 0.0
24 00:55 S 7 10.00 Mostly Cloudy SCT055 SCT065 BKN075 73.6 70.3 90% 30.13 0.0
24 00:35 S 6 10.00 Mostly Cloudy SCT065 BKN075 74.3 72.3 94% 30.12 0.0
24 00:15 S 6 10.00 Partly Cloudy SCT065 74.5 71.6 91% 30.12 0.0
23 23:55 SW 8 10.00 Thunderstorm SCT029 SCT045 SCT110 75 72 90% 74 30.11 0.0 0.08
23 23:35 S 7 G 17 5.00 Thunderstorm Light Rain SCT015 BKN044 OVC110 75.9 73.2 91% 76 30.11 0.0 0.08
23 23:15 SE 5 10.00 Thunderstorm SCT021 BKN039 OVC100 75.7 74.3 95% 75 30.12 0.0
23 22:55 Calm 10.00 Thunderstorm in Vicinity SCT048 SCT065 BKN100 75.6 73.9 95% 74 30.13 0.0
23 22:35 Calm 10.00 Partly Cloudy SCT050 SCT065 SCT110 75.6 73.9 95% 74 30.11 0.0
23 22:15 Calm 10.00 Mostly Cloudy SCT050 BKN110 75.7 73.8 94% 75 30.11 0.0
23 21:55 Calm 10.00 Partly Cloudy SCT120 75.6 74.3 96% 74 30.12 0.0
23 21:35 Calm 10.00 Partly Cloudy SCT120 75.4 74.1 96% 74 30.11 0.0
23 21:15 Calm 10.00 Fair CLR 75.4 74.3 96% 74 30.11 0.0
23 20:55 Calm 10.00 Fair CLR 75.4 74.1 96% 74 30.1 0.0
23 20:35 Calm 10.00 Partly Cloudy SCT070 SCT080 75.6 74.3 96% 74 30.09 0.0
23 20:15 Calm 10.00 Mostly Cloudy SCT004 BKN070 BKN090 75.9 74.3 95% 75 30.09 0.0
23 19:55 E 3 10.00 Partly Cloudy SCT100 75.9 74.5 87.8 75.2 95% 75 30.09 0.0 0.09 0.23
23 19:35 E 3 7.00 Light Rain SCT029 SCT050 BKN110 75.7 74.3 95% 75 30.09 0.0 0.08
23 19:15 N 3 4.00 Thunderstorm Rain in Vicinity BKN031 BKN044 OVC110 75.4 74.3 96% 74 30.11 0.0 0.05
23 18:55 Calm 10.00 Thunderstorm Drizzle SCT034 BKN050 BKN060 76.1 74.3 94% 76 30.11 0.0 0.02
23 18:35 Calm 10.00 Thunderstorm in Vicinity BKN060 BKN080 BKN110 76.1 73.9 93% 76 30.1 0.0 0.02
23 18:15 Calm 10.00 Light Rain SCT033 SCT043 OVC060 75.7 73.6 93% 75 30.09 0.0 0.02
23 17:55 SE 3 1.50 Heavy Rain SCT012 BKN030 OVC043 76.1 72.7 89% 76 30.1 0.0 0.11
23 17:35 S 3 10.00 Thunderstorm Light Rain SCT012 BKN034 OVC070 77.4 73.4 88% 79 30.1 0.0
23 17:15 Calm 10.00 Thunderstorm in Vicinity SCT035 SCT042 SCT050 77.5 72.3 84% 79 30.06 0.0
23 16:55 NW 7 10.00 Thunderstorm in Vicinity SCT029 BKN034 BKN050 78.1 71.4 80% 80 30.06 0.0
23 16:35 W 3 10.00 Thunderstorm in Vicinity SCT026 BKN030 OVC040 77.2 70.2 79% 79 30.07 0.0
23 16:15 SE 6 10.00 Thunderstorm in Vicinity SCT030 BKN044 OVC110 84.2 75.4 75% 93 30.06 0.0
23 15:55 S 5 10.00 Thunderstorm in Vicinity SCT048 SCT070 BKN080 85.1 73.2 68% 92 30.06 0.0
23 15:35 SE 5 10.00 Mostly Cloudy SCT070 BKN080 BKN110 85.1 72.1 65% 91 30.06 0.0
23 15:15 SE 7 10.00 Thunderstorm in Vicinity CLR 86.7 73.4 65% 94 30.06 0.0
23 14:55 SE 7 10.00 Thunderstorm CLR 87.1 73.9 65% 95 30.06 0.0
23 14:35 S 6 10.00 Thunderstorm SCT070 87.3 73 63% 95 30.06 0.0
23 14:15 S 13 10.00 Mostly Cloudy SCT036 SCT050 BKN095 87.8 75.7 68% 98 30.07 0.0
23 13:55 S 12 10.00 Mostly Cloudy SCT035 SCT049 BKN100 85.3 73.2 88.7 76.3 67% 92 30.07 0.0
23 13:35 S 8 10.00 Mostly Cloudy SCT031 SCT055 BKN095 88 73.9 63% 97 30.08 0.0
23 13:15 S 7 10.00 Partly Cloudy SCT031 SCT039 SCT045 87.4 73.2 63% 95 30.08 0.0
23 12:55 S 8 10.00 Partly Cloudy SCT031 SCT037 SCT047 87.6 73.9 64% 96 30.09 0.0
23 12:35 W 6 10.00 Overcast BKN031 BKN037 OVC047 86.2 73.4 66% 94 30.09 0.0
23 12:15 W 5 10.00 Mostly Cloudy SCT028 BKN036 86.4 73.4 65% 94 30.1 0.0
23 11:55 SW 5 10.00 Partly Cloudy SCT026 85.8 73.2 66% 93 30.1 0.0
23 11:35 W 5 10.00 Fair CLR 85.1 73.2 68% 92 30.1 0.0
23 11:15 S 7 10.00 Fair CLR 84.7 74.3 71% 92 30.1 0.0
23 10:55 Calm 10.00 Fair CLR 83.5 73.8 73% 90 30.09 0.0
23 10:35 S 6 10.00 Partly Cloudy SCT016 82.9 73.6 73% 89 30.1 0.0
23 10:15 SW 6 10.00 Partly Cloudy SCT016 82 73.4 75% 88 30.1 0.0
23 09:55 SW 8 10.00 Partly Cloudy SCT014 81.3 73.6 77% 87 30.1 0.0
23 09:35 S 7 10.00 Partly Cloudy SCT012 80.8 73.4 78% 86 30.1 0.0
23 09:15 SW 9 10.00 Partly Cloudy SCT012 79.9 73.4 81% 84 30.1 0.0
23 08:55 SW 7 10.00 Partly Cloudy SCT010 78.8 72.5 81% 82 30.1 0.0
23 08:35 SW 7 10.00 Partly Cloudy SCT010 77.7 72.3 84% 80 30.1 0.0
23 08:15 S 9 10.00 Partly Cloudy SCT010 76.5 71.8 86% 77 30.1 0.0
23 07:55 S 6 10.00 Fair CLR 76.1 72.1 76.1 73.6 88% 76 30.09 0.0
23 07:35 SW 3 10.00 Fair CLR 74.8 71.8 90% 30.08 0.0
23 07:15 SW 5 10.00 Fair CLR 74.8 72 91% 30.08 0.0
23 06:55 SW 6 10.00 Fair CLR 74.5 72.3 93% 30.08 0.0
23 06:35 Calm 10.00 Partly Cloudy SCT007 SCT046 74.3 72.7 95% 30.07 0.0
23 06:15 SW 3 10.00 Partly Cloudy SCT007 74.3 72.5 94% 30.06 0.0
23 05:55 SW 3 10.00 Mostly Cloudy BKN007 74.3 72.7 95% 30.06 0.0
23 05:35 SW 3 10.00 Overcast OVC007 74.3 72.7 95% 30.06 0.0
23 05:15 SW 3 7.00 Overcast OVC007 74.3 72.7 95% 30.05 0.0
23 04:55 S 5 7.00 Overcast OVC005 74.3 72.9 95% 30.05 0.0
23 04:35 S 6 10.00 Overcast BKN005 OVC012 73.9 72.5 95% 30.04 0.0
23 04:15 SW 6 7.00 Mostly Cloudy SCT005 BKN012 73.8 72.5 96% 30.04 0.0
23 03:55 S 5 10.00 Partly Cloudy SCT005 73.6 72.1 95% 30.03 0.0
23 03:15 SW 6 10.00 Overcast OVC007 73.9 72.5 95% 30.04 0.0
23 02:55 SW 7 10.00 Overcast OVC007 73.9 72.1 94% 30.04 0.0
23 02:35 SW 5 10.00 Overcast OVC007 73.8 72 94% 30.04 0.0
23 02:15 Calm 10.00 Overcast OVC007 73.8 72 94% 30.04 0.0
23 01:55 SW 5 10.00 Mostly Cloudy BKN007 73.8 71.6 74.3 73.2 93% 30.04 0.0
23 01:35 SW 6 10.00 Partly Cloudy SCT007 73.6 71.6 94% 30.04 0.0
23 01:15 S 3 10.00 Fair CLR 73.8 71.2 92% 30.03 0.0
23 00:55 SW 7 10.00 Partly Cloudy SCT007 SCT120 73.4 70.9 92% 30.03 0.0
23 00:35 S 5 10.00 Mostly Cloudy SCT007 SCT011 BKN120 73.4 70.9 92% 30.03 0.0
23 00:15 S 8 10.00 Partly Cloudy SCT009 73.2 70.5 91% 30.04 0.0
22 23:55 S 7 10.00 Fair CLR 73.4 70.3 90% 30.03 0.0
22 23:35 S 7 10.00 Partly Cloudy SCT027 SCT031 73.4 70.5 91% 30.04 0.0
22 23:15 SW 6 10.00 Partly Cloudy SCT027 73.6 71.4 93% 30.05 0.0
22 22:55 S 6 10.00 Partly Cloudy SCT008 73.8 71.6 93% 30.05 0.0
22 22:35 SW 5 10.00 Partly Cloudy SCT006 73.8 71.6 93% 30.05 0.0
22 22:15 SW 6 10.00 Mostly Cloudy BKN006 73.9 72 94% 30.04 0.0
22 21:55 S 5 10.00 Mostly Cloudy BKN006 BKN011 74.1 72.5 95% 30.03 0.0
22 21:35 SW 6 10.00 Mostly Cloudy BKN006 BKN011 74.3 72.5 94% 30.03 0.0
22 21:15 S 5 10.00 Overcast OVC006 73.9 72.3 95% 30.02 0.0
22 20:55 S 5 10.00 Overcast OVC006 73.8 72.3 95% 30 0.0
22 20:35 S 3 10.00 Overcast OVC006 73.9 72.5 95% 29.99 0.0
22 20:15 S 3 10.00 Overcast BKN006 BKN027 OVC047 73.9 72.5 95% 30 0.0
22 19:55 S 6 10.00 Light Rain SCT008 SCT027 BKN100 73.8 72 86.2 73.8 94% 29.99 0.0 0.04 0.44
22 19:35 S 6 10.00 Light Rain SCT008 SCT027 SCT040 73.8 72 94% 30 0.0 0.02
22 19:15 S 5 10.00 Rain SCT018 SCT045 BKN110 73.9 72.1 94% 30 0.0 0.01
22 18:55 W 3 7.00 Rain SCT095 OVC120 73.8 71.6 93% 30.01 0.0 0.1
22 18:35 SW 6 7.00 Thunderstorm Rain BKN110 73.8 71.6 93% 30.01 0.0 0.06
22 18:15 SW 6 10.00 Rain SCT045 SCT060 SCT080 73.9 71.6 92% 30.01 0.0 0.02
22 17:55 SW 5 4.00 Thunderstorm Rain SCT010 BKN070 OVC085 73.9 71.1 91% 30 0.0 0.3
22 17:35 SW 10 7.00 Thunderstorm Rain in Vicinity SCT011 BKN050 OVC065 74.7 71.1 89% 30.01 0.0 0.2
22 17:15 S 13 2.00 Thunderstorm Heavy Rain in Vicinity BKN021 BKN037 OVC048 75.6 70.2 83% 76 30 0.0 0.18
22 16:55 SW 6 10.00 Mostly Cloudy SCT033 BKN050 BKN065 86 71.8 63% 92 29.97 0.0
22 16:35 SW 6 10.00 Partly Cloudy SCT120 85.6 71.6 63% 91 29.98 0.0
22 16:15 SW 7 10.00 Partly Cloudy SCT030 84.9 71.4 64% 90 29.98 0.0
22 15:55 SW 6 10.00 Partly Cloudy SCT030 85.5 71.1 62% 91 30 0.0
22 15:35 SW 8 10.00 Fair CLR 84.4 70.3 63% 89 30 0.0
22 15:15 SW 7 10.00 Partly Cloudy SCT026 SCT032 84.7 71.2 64% 90 30.01 0.0
22 14:55 S 7 10.00 Mostly Cloudy BKN026 84.2 71.4 66% 89 30.01 0.0
22 14:35 S 8 10.00 Mostly Cloudy BKN026 83.8 71.2 66% 89 30.02 0.0
22 14:15 S 8 10.00 Overcast SCT018 BKN026 OVC030 82.4 71.4 70% 87 30.03 0.0
22 13:55 S 9 10.00 Overcast OVC019 81 71.8 82 72.9 74% 85 30.05 0.0
22 13:35 S 7 10.00 Overcast OVC019 81.7 72.1 73% 86 30.05 0.0
22 13:15 S 6 10.00 Overcast BKN017 OVC090 80.1 71.4 75% 84 30.06 0.0
22 12:55 S 7 10.00 Overcast SCT017 BKN090 OVC120 80.2 71.8 75% 84 30.06 0.0
22 12:35 S 7 10.00 Overcast BKN017 BKN023 OVC100 79 71.2 77% 82 30.07 0.0
22 12:15 S 8 10.00 Overcast OVC017 79 71.4 78% 82 30.07 0.0
22 11:55 S 7 10.00 Overcast OVC015 79 71.2 77% 82 30.07 0.0
22 11:35 S 6 10.00 Overcast BKN015 OVC110 79.2 72.1 79% 82 30.08 0.0
22 11:15 Calm 10.00 Overcast SCT012 SCT019 OVC110 77.9 71.1 80% 80 30.07 0.0
22 10:55 SE 5 10.00 Mostly Cloudy BKN012 BKN095 BKN110 77.4 71.8 83% 79 30.08 0.0
22 10:35 S 3 10.00 Mostly Cloudy SCT010 BKN095 BKN110 77 72 85% 78 30.08 0.0
22 10:15 S 5 10.00 Overcast SCT008 SCT065 OVC095 76.6 72.1 86% 78 30.08 0.0
22 09:55 S 3 10.00 Mostly Cloudy SCT004 SCT065 BKN095 76.5 73 89% 77 30.07 0.0
22 09:35 S 5 10.00 Mostly Cloudy SCT004 BKN065 BKN095 75.6 73.4 93% 75 30.07 0.0
22 09:15 SE 3 10.00 Overcast BKN004 BKN075 OVC090 74.7 73 95% 30.08 0.0
22 08:55 S 3 10.00 Mostly Cloudy SCT004 SCT060 BKN100 73.9 71.6 92% 30.08 0.0
22 08:35 Calm 10.00 Mostly Cloudy SCT004 SCT050 BKN060 73.4 71.2 93% 30.07 0.0
22 08:15 Calm 10.00 Overcast OVC060 73.2 71.1 93% 30.06 0.0
22 07:55 Calm 10.00 Overcast BKN060 BKN070 OVC120 72.7 71.1 74.3 71.8 95% 30.06 0.0 0.39
22 07:35 Calm 10.00 Overcast SCT070 OVC090 72.5 71.1 95% 30.05 0.0
22 07:15 Calm 10.00 Overcast SCT034 SCT080 OVC100 72.3 71.1 96% 30.05 0.0
22 06:55 Calm 10.00 Light Drizzle SCT036 SCT055 BKN120 72.3 70.7 95% 30.05 0.0 0.01
22 06:35 Calm 10.00 Rain BKN042 BKN060 OVC120 72 70.5 95% 30.05 0.0 0.01
22 06:15 Calm 10.00 Overcast BKN044 OVC050 72 70.7 96% 30.05 0.0 0.01
22 05:55 W 5 10.00 Light Rain SCT049 BKN060 OVC090 72.1 71.2 97% 30.05 0.0 0.32
22 05:35 SW 6 4.00 Thunderstorm Rain SCT016 BKN047 OVC090 72.5 71.2 96% 30.06 0.0 0.3
22 05:15 SW 6 5.00 Thunderstorm Rain in Vicinity SCT015 BKN065 OVC090 74.3 71.8 92% 30.04 0.0 0.05
22 04:55 SW 7 4.00 Heavy Rain SCT018 BKN035 BKN060 74.3 71.8 92% 30.05 0.0 0.06 0.06
22 04:35 S 3 10.00 Mostly Cloudy SCT032 SCT070 BKN090 73.9 71.6 92% 30.03 0.0
22 04:15 S 3 10.00 Mostly Cloudy SCT060 BKN070 BKN090 73.8 71.6 93% 30.03 0.0
22 03:55 Calm 10.00 Partly Cloudy SCT060 74.1 71.6 92% 30.04 0.0
22 03:35 Calm 10.00 Fair CLR 73.9 71.2 91% 30.04 0.0
22 03:15 Calm 10.00 Fair CLR 73.9 71.2 91% 30.05 0.0
22 02:55 Calm 10.00 Fair CLR 74.1 71.2 91% 30.06 0.0
22 02:35 Calm 10.00 Fair CLR 74.1 71.1 90% 30.05 0.0
22 02:15 Calm 10.00 Fair CLR 74.3 70.9 89% 30.06 0.0
22 01:55 SE 3 10.00 Fair CLR 74.3 70.7 82.2 74.3 89% 30.06 0.0
22 01:35 Calm 10.00 Fair CLR 74.3 70.7 89% 30.07 0.0
22 01:15 Calm 10.00 Fair CLR 74.3 70.5 88% 30.08 0.0
22 00:55 Calm 10.00 Fair CLR 74.7 70.5 87% 30.07 0.0
22 00:35 Calm 10.00 Fair CLR 74.7 70.5 87% 30.08 0.0
22 00:15 Calm 10.00 Fair CLR 75.2 70.7 86% 75 30.08 0.0
21 23:55 SE 3 10.00 Fair CLR 75.4 70.7 85% 75 30.08 0.0
21 23:35 SE 5 10.00 Fair CLR 75.6 70.7 85% 76 30.07 0.0
21 23:15 SE 5 10.00 Fair CLR 75.4 70.9 86% 75 30.08 0.0
21 22:55 E 5 10.00 Fair CLR 76.3 70.7 83% 77 30.08 0.0
21 22:35 E 3 10.00 Fair CLR 76.1 70.9 84% 77 30.08 0.0
21 22:15 Calm 10.00 Fair CLR 76.1 70.7 83% 77 30.08 0.0
21 21:55 E 3 10.00 Fair CLR 77.4 69.8 78% 79 30.07 0.0
21 21:35 Calm 10.00 Fair CLR 77.9 70.5 78% 80 30.06 0.0
21 21:15 SE 3 10.00 Fair CLR 78.1 70.9 79% 80 30.06 0.0
21 20:55 E 5 10.00 Fair CLR 78.6 71.1 78% 81 30.05 0.0
21 20:35 E 5 10.00 Fair CLR 79 71.4 78% 82 30.04 0.0
21 20:15 Calm 10.00 Fair CLR 80.6 71.4 74% 85 30.03 0.0
21 19:55 E 3 10.00 Fair CLR 82.6 69.4 88.2 82.6 65% 86 30.03 0.0
21 19:35 E 3 10.00 Fair CLR 83.5 69.1 62% 87 30.02 0.0
21 19:15 Calm 10.00 Fair CLR 84.2 68.9 60% 88 30.02 0.0
21 18:55 E 5 10.00 Fair CLR 84.6 68.9 59% 88 30.02 0.0
21 16:55 Calm 10.00 Mostly Cloudy SCT039 BKN045 84.7 69.6 61% 89 30.03 0.0
21 16:35 Calm 10.00 Partly Cloudy SCT041 85.8 67.5 54% 89 30.03 0.0
21 16:15 E 3 10.00 Fair CLR 88 65.3 47% 90 30.03 0.0
21 15:55 E 3 10.00 Fair CLR 87.8 65.3 47% 90 30.04 0.0
21 15:35 S 3 10.00 Fair CLR 87.4 65.1 48% 89 30.04 0.0
21 15:15 Calm 10.00 Fair CLR 86.7 63.5 46% 88 30.05 0.0
21 14:55 SE 5 10.00 Fair CLR 86.4 63.1 46% 87 30.05 0.0
21 14:35 E 5 10.00 Fair CLR 86 67.3 54% 89 30.06 0.0
21 14:15 SE 6 10.00 Fair CLR 85.1 68 57% 88 30.07 0.0
21 13:55 Calm 10.00 Partly Cloudy SCT031 85.1 68.2 85.3 72.7 57% 89 30.07 0.0
21 13:35 E 3 10.00 Partly Cloudy SCT031 83.5 68.9 62% 87 30.07 0.0
21 13:15 Calm 10.00 Fair CLR 84.2 68.5 59% 88 30.07 0.0
21 12:55 Calm 10.00 Partly Cloudy SCT030 83.8 68.9 61% 87 30.07 0.0
21 12:35 NE 3 10.00 Mostly Cloudy SCT030 BKN110 83.5 68.5 61% 87 30.08 0.0
21 12:15 Calm 10.00 Overcast OVC110 82.6 66.7 59% 85 30.08 0.0
21 11:55 Calm 10.00 Overcast OVC110 82.6 68.4 62% 86 30.08 0.0
21 11:35 NE 3 10.00 Overcast OVC110 81.7 68.7 65% 85 30.08 0.0
21 11:15 Calm 10.00 Mostly Cloudy BKN110 81 69.1 67% 84 30.08 0.0
21 10:55 Calm 10.00 Fair CLR 80.6 68.2 66% 83 30.08 0.0
21 10:35 Calm 10.00 Fair CLR 79.5 67.8 68% 82 30.08 0.0
21 10:15 Calm 10.00 Fair CLR 79.5 68.9 70% 82 30.08 0.0
21 09:55 Calm 10.00 Fair CLR 78.6 69.3 73% 81 30.08 0.0
21 09:35 NW 3 10.00 Fair CLR 77.4 70.5 80% 79 30.08 0.0
21 09:15 Calm 10.00 Fair CLR 75.2 69.6 83% 75 30.08 0.0
21 08:55 Calm 10.00 Fair CLR 74.8 69.8 84% 30.08 0.0
21 08:35 Calm 10.00 Fair CLR 74.3 69.8 86% 30.08 0.0
21 08:15 Calm 10.00 Partly Cloudy SCT005 73.6 70.2 89% 30.08 0.0
21 07:55 Calm 10.00 Partly Cloudy SCT005 72.5 70 73 69.8 92% 30.08 0.0
Date Time (edt) Wind (mph) Vis. (mi.) Weather Sky Cond. Air Dwpt Max. Min. Relative Humidity Wind Chill (°F) Heat Index (°F) altimeter (in) sea level (mb) 1 hr 3 hr 6 hr
6 hour
Temperature (ºF) Pressure Precipitation (in)